Location: Kerfichant
(47.7554°N, 3.3957°W)
Time: 07:04:05
(UTC+00:00)

Daily predictions for brighter satellites

Satellite Brightness Start Highest point End
(mag) Time Altitude Azimuth Time Altitude Azimuth Time Altitude Azimuth
Cosmos 1354 Rocket 4.2 18:03:47 10° NNW 18:09:00 52° ENE 18:14:08 10° SE
Cosmos 1238 Rocket 4.4 18:03:35 10° SSE 18:09:16 41° E 18:15:25 10° NNE
Meteor 2-3 Rocket 3.7 18:06:15 10° S 18:11:50 81° E 18:17:30 10° NNE
H-2A R/B 3.6 18:08:47 10° E 18:12:04 17° NE 18:15:24 10° NNE
Cosmos 1833 Rocket 3.5 18:07:10 10° NW 18:12:43 59° WSW 18:18:13 10° S
STARLINK-43 3.6 18:09:57 10° WSW 18:13:38 66° NNW 18:17:21 10° ENE
Cosmos 2016 Rocket 4.3 18:11:51 10° SSE 18:17:33 44° E 18:23:19 10° NNE
SL-27 R/B 4.3 18:16:16 10° NNE 18:18:00 13° NE 18:19:44 10° E
Ariane Rocket 3.8 18:23:58 10° ESE 18:28:17 29° ENE 18:32:39 10° N
YAOGAN 1 2.6 18:24:42 10° SSE 18:28:58 63° ENE 18:33:16 10° N
CSL-04 Rocket 3.7 18:25:13 10° SSE 18:30:41 63° ENE 18:36:08 10° N
STARLINK-61 4.5 18:27:41 10° SSW 18:31:07 30° SE 18:33:58 13° E
Cosmos 921 Rocket 4.5 18:28:11 10° SE 18:31:19 19° E 18:34:27 10° NE
SKYMED 2 3.6 18:28:10 10° NNE 18:32:33 87° ESE 18:36:54 10° SSW
USA 234 4.0 18:27:30 10° ENE 18:33:30 41° N 18:39:31 10° WNW
USA 229 DEB 4.4 18:28:47 10° S 18:34:23 31° ESE 18:40:11 10° NE
USA 229 4.4 18:28:55 10° S 18:34:29 31° ESE 18:40:17 10° NE
Cosmos 2278 Rocket 3.1 18:29:03 10° SW 18:34:33 52° WNW 18:40:06 10° NNE
ADEOS Rocket 3.8 18:27:24 10° NNE 18:34:47 46° E 18:42:10 10° SSE
Cosmos 968 Rocket 3.7 18:30:33 10° NNW 18:35:44 76° WSW 18:40:56 10° SSE
ARGOS 4.3 18:33:45 10° ESE 18:37:53 23° ENE 18:42:02 10° N
Abrixas rocket 3.4 18:36:04 10° W 18:38:48 34° SSW 18:41:32 10° SE
NOAA 11 4.1 18:34:10 10° SSE 18:39:36 80° ENE 18:45:04 10° NNW
Cosmos 1633 Rocket 3.8 18:36:10 10° SSE 18:39:53 29° E 18:43:39 10° NNE
STARLINK-48 3.4 18:36:33 10° SW 18:40:26 76° SSE 18:43:33 15° ENE
CSL-04 Debris 4.1 18:35:29 10° SSE 18:40:55 77° ENE 18:46:25 10° NNW
Cosmos 1782 3.2 18:37:48 10° NNW 18:41:50 67° W 18:45:47 10° S
Cosmos 1666 Rocket 4.1 18:37:46 10° SSE 18:41:53 37° E 18:46:01 10° NNE
Lacrosse 4 Rocket 1.5 18:39:01 10° SSW 18:43:05 55° ESE 18:47:19 10° NE
Meteor 1-10 Rocket 4.2 18:38:48 10° N 18:44:28 68° ENE 18:50:00 10° SSE
SJ-6B 4.4 18:45:55 16° ENE 18:45:55 16° ENE 18:48:12 10° NNE
Cosmos 2173 Rocket 4.2 18:39:39 10° S 18:46:02 82° W 18:52:27 10° N
SL-4 R/B 2.4 18:45:00 10° WNW 18:49:47 76° SSW 18:53:46 13° ESE
Cosmos 44 4.3 18:46:40 10° NNW 18:50:17 24° NE 18:52:10 19° ENE
Okean-O 4.4 18:47:09 10° SSW 18:51:14 36° W 18:55:21 10° NNW
Cosmos 1633 2.5 18:47:53 10° S 18:51:28 85° W 18:55:06 10° N
Cosmos 1862 3.3 18:47:47 10° S 18:51:41 54° E 18:55:36 10° NNE
FALCON 9 DEB 4.1 18:53:30 10° WNW 18:56:43 35° N 18:58:18 23° ENE
STARLINK-26 3.1 18:56:21 10° WSW 18:59:49 88° SE 19:01:39 26° ENE
STARLINK-54 4.5 18:57:25 10° SSW 19:01:00 31° SE 19:02:20 25° ESE
Meteor 2-6 Rocket 4.3 18:56:10 10° NNW 19:01:49 78° W 19:07:16 10° S
STARLINK-25 4.5 19:00:35 10° SSW 19:04:07 31° SE 19:05:15 26° ESE
deb Kosmos-1763 4.1 19:01:39 10° NNW 19:05:20 82° WSW 19:08:59 10° SSE
STARLINK-71 4.3 19:02:16 10° SSW 19:05:55 34° SE 19:07:07 28° ESE
CENTAUR R/B 4.4 19:01:03 10° NW 19:06:35 24° N 19:12:43 10° NE
STARLINK-79 4.4 19:03:49 10° SSW 19:07:25 32° SE 19:08:26 28° ESE
Cosmos 1943 Rocket 2.5 19:03:17 10° S 19:08:29 41° ESE 19:13:25 11° NE
STARLINK-78 4.3 19:05:21 10° SSW 19:08:59 33° SE 19:09:58 29° ESE
STARLINK-29 4.1 19:06:42 10° WNW 19:09:54 35° N 19:10:54 29° NE
STARLINK-75 3.4 19:06:51 10° SW 19:10:10 48° SE 19:11:02 37° E
MOS 1 4.5 19:05:01 10° SE 19:10:26 49° ENE 19:15:53 10° N
STARLINK-57 4.3 19:07:05 10° SSW 19:10:46 36° SE 19:11:46 31° ESE
ATLAS 3B R/B 4.4 19:07:03 10° WNW 19:12:02 22° NNW 19:17:05 10° NE
STARLINK-49 4.3 19:08:38 10° SSW 19:12:18 35° SE 19:13:10 31° ESE
STARLINK-33 3.2 19:09:26 10° SW 19:12:38 53° SE 19:13:17 43° ESE
Cosmos 2061 Rocket 4.3 19:07:27 10° SSW 19:13:52 73° W 19:20:17 10° N
STARLINK-27 4.2 19:10:19 10° SSW 19:14:00 36° SE 19:14:49 32° ESE
STARLINK-22 3.6 19:11:28 10° SW 19:14:43 42° SE 19:15:12 39° ESE
STARLINK-66 3.1 19:11:34 10° SW 19:14:47 56° SSE 19:15:23 46° ESE
STARLINK-74 4.2 19:11:55 10° SSW 19:15:38 37° SE 19:16:23 33° ESE
STARLINK-41 3.5 19:12:49 10° SW 19:16:07 46° SE 19:16:38 42° ESE
STARLINK-55 3.0 19:13:14 10° SW 19:16:28 60° SSE 19:17:01 49° E
CZ-2D R/B 4.3 19:13:06 10° S 19:16:52 48° W 19:20:40 10° NNW
USA 116 4.3 19:13:16 10° N 19:16:52 57° WNW 19:20:53 10° SSW
STARLINK-39 4.1 19:13:28 10° SSW 19:17:12 38° SE 19:17:55 35° ESE
STARLINK-28 2.9 19:14:50 10° SW 19:18:05 66° SSE 19:18:38 53° E
CZ-4 R/B 3.4 19:14:29 10° SSW 19:18:16 32° W 19:22:03 10° NNW
Cosmos 2297 3.9 19:12:39 10° SW 19:18:18 72° WNW 19:23:58 10° NNE
Cosmos 1607 4.1 19:12:16 10° NW 19:18:34 78° WSW 19:24:56 10° SSE
STARLINK-31 4.1 19:15:09 10° SSW 19:18:55 39° SE 19:19:34 36° ESE
STARLINK-52 4.0 19:15:47 10° WNW 19:18:59 36° N 19:19:36 33° NE
COSMO-SKYMED 1 4.4 19:16:34 10° N 19:20:26 32° WNW 19:24:18 10° SW
STARLINK-69 4.0 19:16:50 10° SW 19:20:39 43° SE 19:21:20 39° ESE
Cosmos 1470 Rocket 3.8 19:17:35 10° SSE 19:21:40 43° E 19:25:49 10° NNE
STARLINK-21 4.0 19:18:26 10° SSW 19:22:14 42° SE 19:22:47 39° ESE
STARLINK-45 3.8 19:20:13 10° SW 19:24:04 46° SE 19:24:40 43° ESE
Cosmos 1725 Rocket 4.2 19:19:16 10° SSW 19:25:26 75° W 19:31:40 10° N
Cosmos 1939 Rocket 4.4 19:21:36 10° SSW 19:25:28 40° W 19:29:24 10° NNW
Cosmos 1812 2.7 19:21:38 10° NNW 19:25:31 81° W 19:29:22 10° S
STARLINK-70 3.8 19:21:48 10° SW 19:25:38 46° SE 19:26:09 43° ESE
Sich 1 3.7 19:21:50 10° SSW 19:26:03 56° WNW 19:30:17 10° N
STARLINK-58 3.4 19:23:18 10° SW 19:26:46 50° SE 19:26:53 50° SE
Cosmos 1862 Rocket 3.4 19:22:42 10° N 19:27:02 71° E 19:31:22 10° SSE
STARLINK-76 3.8 19:23:20 10° SW 19:27:10 45° SE 19:27:34 44° SE
ARGOS Delta rocket 4.5 19:27:54 31° NE 19:27:54 31° NE 19:31:12 10° N
Cosmos 1777 Rocket 3.9 19:22:52 10° NNW 19:28:12 81° ENE 19:32:51 13° SSE
STARLINK-62 3.3 19:25:08 10° SW 19:28:37 53° SE 19:28:42 53° SE
STARLINK-23 3.8 19:24:57 10° SW 19:28:49 46° SE 19:29:09 45° SE
STARLINK-34 3.3 19:26:23 10° SW 19:29:51 54° SE 19:29:53 54° SE
STARLINK-32 3.8 19:26:37 10° SW 19:30:29 48° SE 19:30:45 47° SE
STARLINK-40 3.7 19:28:13 10° SW 19:32:06 49° SE 19:32:19 48° SE
Cosmos 2285 Rocket 4.0 19:26:39 10° NNW 19:32:56 58° ENE 19:36:24 27° SE
STARLINK-42 3.0 19:29:47 10° SW 19:32:55 69° S 19:32:55 69° S
Lacrosse 5 rocket 3.0 19:29:42 10° W 19:33:43 31° NNW 19:35:54 21° NNE
STARLINK-44 3.7 19:29:50 10° SW 19:33:44 50° SE 19:33:53 50° SE
Cosmos 2369 Rocket 2.3 19:29:37 10° S 19:35:04 53° ESE 19:38:21 24° NE
STARLINK-37 3.6 19:31:28 10° SW 19:35:23 54° SE 19:35:33 53° SE
Cosmos 1464 Rocket 4.4 19:29:55 10° SSE 19:35:38 37° E 19:41:25 10° NNE
Tsikada Rocket 4.5 19:29:44 10° NNW 19:36:01 64° W 19:42:19 10° S
NOSS 3-1 (C) 3.2 19:31:28 10° SSW 19:36:56 70° SE 19:40:53 23° NE
STARLINK-36 3.7 19:33:08 10° SW 19:37:03 53° SE 19:37:05 53° SE
STARLINK-68 3.5 19:34:56 10° SW 19:38:52 59° SSE 19:38:57 59° SE
STARLINK-80 4.1 19:35:29 10° W 19:39:10 44° NNW 19:39:53 39° NNE
USA 267 3.7 19:38:57 34° ESE 19:40:16 37° SE 19:46:13 10° SSW
Meteor 1-27 Rocket 3.9 19:34:55 10° NNW 19:40:26 71° W 19:45:59 10° S
STARLINK-63 3.6 19:36:31 10° SW 19:40:26 58° SSE 19:40:26 58° SSE
STARLINK-35 3.6 19:38:05 10° SW 19:41:53 57° SSE 19:41:53 57° SSE
STARLINK-51 3.6 19:39:44 10° SW 19:43:30 58° SSE 19:43:30 58° SSE
STARLINK-30 3.6 19:41:21 10° SW 19:45:04 59° SSE 19:45:04 59° SSE
STARLINK-60 3.6 19:42:33 10° WNW 19:45:14 53° NW 19:45:14 53° NW
STARLINK-72 3.7 19:43:00 10° SW 19:46:40 60° S 19:46:40 60° S
Cosmos 2263 4.3 19:43:03 10° S 19:48:35 49° ESE 19:49:08 48° E
STARLINK-50 3.7 19:44:38 10° SW 19:48:15 60° S 19:48:15 60° S
CZ-2C R/B 3.2 19:44:51 17° SSE 19:49:23 76° ENE 19:55:11 10° N
STARLINK-59 3.6 19:46:22 10° SW 19:49:58 63° S 19:49:58 63° S
H-2A R/B 2.0 19:45:44 12° SSE 19:50:44 90° WSW 19:56:12 10° NNW
IRS-1A Rocket 4.5 19:45:20 10° S 19:50:50 68° WSW 19:56:21 10° NNW
STARLINK-56 3.7 19:47:55 10° SW 19:51:25 59° SSW 19:51:25 59° SSW
STARLINK-43 4.5 19:48:32 10° WNW 19:51:52 35° N 19:51:52 35° N
SL-08 RB Rocket 3.8 19:52:46 55° NE 19:52:46 55° NE 19:56:40 10° N
SL-27 R/B 3.1 19:50:10 10° NNW 19:53:26 48° WSW 19:53:32 48° WSW
STARLINK-73 3.8 19:49:33 10° SW 19:53:00 59° SSW 19:53:00 59° SSW
STARLINK-38 3.8 19:51:14 10° SW 19:54:37 58° SSW 19:54:37 58° SSW
STARLINK-65 3.9 19:52:53 10° SW 19:56:13 57° SSW 19:56:13 57° SSW
STARLINK-64 4.0 19:54:29 10° WSW 19:57:13 50° WSW 19:57:13 50° WSW
STARLINK-53 3.9 19:54:37 10° SW 19:57:56 58° SW 19:57:56 58° SW
Ariane Rocket 4.1 20:02:13 10° S 20:07:04 44° W 20:11:58 10° NNW
SJ 16-02 3.3 20:03:46 10° N 20:05:16 19° N 20:05:16 19° N
Cosmos 921 Rocket 3.8 20:04:48 10° SW 20:09:12 52° WNW 20:12:44 16° N
STARLINK-61 4.3 20:05:47 10° WSW 20:08:53 50° W 20:08:53 50° W
MetOp-A 4.0 20:15:33 74° NE 20:15:33 74° NE 20:20:39 10° NNW
USA 234 3.3 20:14:46 54° ENE 20:15:56 63° NNE 20:22:24 10° NW
Cosmos 2297 Rocket 4.1 20:12:38 10° N 20:14:56 16° NNE 20:14:56 16° NNE
ARGOS 3.5 20:14:27 24° S 20:17:42 64° WSW 20:23:07 10° NNW
SJ-6B 4.3 20:21:31 32° NW 20:21:31 32° NW 20:23:51 10° NNW
Lacrosse 4 Rocket 3.7 20:18:43 10° W 20:22:07 23° NW 20:24:13 16° N
Meteor 1-25 Rocket 4.3 20:18:41 10° S 20:25:11 69° NNE 20:30:08 10° NNE
USA 229 DEB 3.9 20:18:17 10° SW 20:24:50 66° NW 20:28:23 30° NNE
USA 229 3.9 20:18:23 10° SW 20:24:56 67° NW 20:28:25 31° NNE
SL-4 R/B 4.3 20:25:33 10° W 20:28:55 20° SW 20:29:24 20° SW
Cosmos 1072 Rocket 4.5 20:23:48 10° S 20:30:12 85° W 20:36:36 10° N
Resurs 01 Rocket 3.6 20:33:50 21° N 20:33:50 21° N 20:35:18 10° N
SPOT 3 Rocket 3.8 20:30:39 62° SW 20:31:01 64° WSW 20:36:13 10° NNW
NOSS 3-1 (A) 3.3 20:26:12 10° SW 20:31:47 83° NW 20:32:02 80° N
Cosmos 44 4.1 20:27:27 10° NW 20:30:37 43° WNW 20:30:37 43° WNW
Cosmos 2227 Rocket 4.2 20:29:58 10° N 20:32:00 16° NNE 20:32:00 16° NNE
Cosmos 1943 Rocket 3.5 20:47:08 10° WSW 20:52:17 37° NW 20:55:03 23° N
CENTAUR R/B 4.1 20:53:08 10° NW 20:59:47 32° NNE 20:59:54 32° NNE
ATLAS 3B R/B 4.2 20:59:56 10° NW 21:04:54 23° NNE 21:04:54 23° NNE
Lacrosse 5 rocket 4.2 21:10:07 10° NW 21:11:33 17° NW 21:11:33 17° NW
Cosmos 2369 Rocket 3.8 21:14:23 10° WSW 21:19:23 31° NW 21:20:17 30° NNW
USA 267 4.2 21:26:19 39° WSW 21:26:19 39° WSW 21:30:11 10° WSW
